Overview Statistics Trail Chart Weather Telemetry Raw packets
 

This is the latest recevied weather packets stored in our database for station/object K3CHZ. If no packets are shown the sender has not sent any weather packets the latest 10 day(s).

<< 1 2 3 4 5 6 7 >>
Time Temp. Humidity Pressure Rain* Wind** Luminosity Snow
1788555400 26.67° C 80% 1013.2 hPa 0 mm - - -
1788555099 26.67° C 79% 1013.4 hPa 0 mm - - -
1788554798 27.22° C 79% 1013.3 hPa 0 mm - - -
1788554499 27.22° C 78% 1013.3 hPa 0 mm - - -
1788554199 27.22° C 78% 1013.4 hPa 0 mm - - -
1788553898 27.22° C 77% 1013.5 hPa 0 mm - - -
1788553599 27.78° C 77% 1013.3 hPa 0 mm - - -
1788553301 27.78° C 78% 1013.4 hPa 0 mm - - -
1788553000 27.78° C 76% 1013.4 hPa 0 mm - - -
1788552699 28.33° C 76% 1013.5 hPa 0 mm - - -
1788552399 28.33° C 75% 1013.5 hPa 0 mm - - -
1788552100 28.89° C 74% 1013.6 hPa 0 mm - - -
1788551799 28.89° C 74% 1013.4 hPa 0 mm - - -
1788551499 28.89° C 75% 1013.4 hPa 0 mm - - -
1788551199 28.89° C 74% 1013.4 hPa 0 mm - - -
1788550898 28.89° C 74% 1013.5 hPa 0 mm - - -
1788550599 28.89° C 73% 1013.3 hPa 0 mm - - -
1788550301 28.89° C 74% 1013 hPa 0 mm - - -
1788550001 29.44° C 72% 1013.2 hPa 0 mm - - -
1788549702 29.44° C 75% 1013.4 hPa 0 mm - - -
1788549402 29.44° C 72% 1013.3 hPa 0 mm - - -
1788549103 29.44° C 71% 1013.4 hPa 0 mm - - -
1788548805 29.44° C 71% 1013.6 hPa 0 mm - - -
1788548502 29.44° C 74% 1013.7 hPa 0 mm - - -
1788548201 29.44° C 70% 1013.8 hPa 0 mm - - -

* Rain latest hour (hover to see other rain measurements)
** Current wind speed in m/s (hover to see current wind gust speed)